Madigan Hospital, WA

12:54 PM PDT on July 23, 2016 (GMT -0700)
Gray Army Air Field

Weather History for KGRF - February, 2013

Change the Weather History Date:

Monday, February 4, 2013

  Actual Average Record
Temperature  
Mean Temperature 46 °F -  
Max Temperature 50 °F 47 °F 58 °F (2009)
Min Temperature 42 °F 32 °F 23 °F (2014)
Degree Days  
Heating Degree Days 19    
Moisture  
Dew Point 41 °F    
Average Humidity 85    
Maximum Humidity 96    
Minimum Humidity 71    
Precipitation  
Precipitation 0.00 in - - ()
Sea Level Pressure  
Sea Level Pressure 30.09 in    
Wind  
Wind Speed 2 mph (WNW)    
Max Wind Speed 5 mph    
Max Gust Speed -    
Visibility 10 miles    
Events      
Averages and records for this station are not official NWS values.
T = Trace of Precipitation, MM = Missing Value Source: NWS Daily Summary

Daily Weather History Graph

Daily Weather History Graph

Search for Another Location

Airport or City:

Trip Planner

Search our weather history database for the weather conditions in past years. The results will help you decide how hot, cold, wet, or windy it might be!

Date:

Astronomy

Feb. 04, 2013 Rise Set
Actual Time 7:31 AM PST 5:18 PM PST
Civil Twilight 6:58 AM PST 5:50 PM PST
Nautical Twilight 6:22 AM PST 6:26 PM PST
Astronomical Twilight 5:46 AM PST 7:02 PM PST
Moon 2:18 AM PST (2/4) 11:40 AM PST (2/4)
Length of Visible Light 10h 51m
Length of Day
9h 47m
Last Quarter, 36% of the Moon is Illuminated
Feb 4
Last Quarter
Feb 9
New
Feb 17
First Quarter
Feb 25
Full
Mar 4
Last Quarter

Hourly Weather History & Observations

Time (PST) Temp. Windchill Dew Point Humidity Pressure Visibility Wind Dir Wind Speed Gust Speed Precip Events Conditions
12:58 AM 43.5 °F - 41.7 °F 93% 30.23 in 10.0 mi Calm Calm - N/A   Overcast
2:58 AM 42.6 °F - 41.5 °F 96% 30.21 in 10.0 mi WNW 2.3 mph - N/A   Overcast
3:58 AM 43.0 °F 41.3 °F 41.5 °F 95% 30.21 in 10.0 mi WNW 3.5 mph - N/A   Overcast
4:58 AM 42.6 °F 40.9 °F 41.5 °F 96% 30.19 in 10.0 mi WNW 3.5 mph - N/A   Overcast
5:58 AM 43.3 °F - 41.7 °F 94% 30.19 in 10.0 mi Calm Calm - N/A   Overcast
6:58 AM 43.3 °F - 41.0 °F 91% 30.18 in 10.0 mi Calm Calm - N/A   Overcast
7:58 AM 43.2 °F - 41.4 °F 93% 30.18 in 10.0 mi WNW 2.3 mph - N/A   Overcast
8:58 AM 44.2 °F - 41.4 °F 90% 30.18 in 10.0 mi WNW 2.3 mph - N/A   Overcast
9:58 AM 45.3 °F 43.0 °F 41.7 °F 87% 30.17 in 10.0 mi WNW 4.6 mph - N/A   Mostly Cloudy
10:03 AM 46.4 °F - 41.0 °F 81% 30.15 in 10.0 mi WNW 2.3 mph - N/A   Scattered Clouds
10:58 AM 46.8 °F - 41.0 °F 80% 30.17 in 10.0 mi WNW 2.3 mph - N/A   Partly Cloudy
11:58 AM 48.6 °F - 40.8 °F 75% 30.15 in 10.0 mi NNW 1.2 mph - N/A   Partly Cloudy
12:58 PM 49.5 °F - 40.5 °F 71% 30.11 in 10.0 mi NW 1.2 mph - N/A   Clear
1:58 PM 50.2 °F - 41.5 °F 72% 30.07 in 10.0 mi NNW 1.2 mph - N/A   Clear
2:58 PM 50.7 °F - 41.7 °F 71% 30.04 in 10.0 mi NW 1.2 mph - N/A   Clear
3:58 PM 50.0 °F - 41.5 °F 73% 30.03 in 10.0 mi WNW 2.3 mph - N/A   Scattered Clouds
4:58 PM 48.4 °F - 41.2 °F 76% 30.04 in 10.0 mi NW 1.2 mph - N/A   Overcast
5:58 PM 46.8 °F - 42.4 °F 85% 30.01 in 10.0 mi WNW 3.5 mph - N/A   Partly Cloudy
6:58 PM 46.8 °F - 42.1 °F 84% 29.95 in 10.0 mi WNW 3.5 mph - N/A   Clear
7:58 PM 46.8 °F - 41.7 °F 83% 29.94 in 10.0 mi WNW 4.6 mph - N/A   Scattered Clouds
8:58 PM 45.7 °F - 41.7 °F 86% 29.92 in 10.0 mi Calm Calm - N/A   Scattered Clouds
9:58 PM 44.6 °F - 41.5 °F 89% 29.93 in 10.0 mi Calm Calm - N/A   Scattered Clouds
10:58 PM 44.8 °F - 41.2 °F 87% 29.93 in 10.0 mi NNW 1.2 mph - N/A   Partly Cloudy
11:58 PM 42.3 °F 40.5 °F 39.9 °F 91% 29.93 in 10.0 mi WNW 3.5 mph - N/A   Partly Cloudy